Regional Weather Roundup
Issued by NWS

Home | Current Version | Previous Version | Graphics & Text | Print | Product List | Glossary On
Versions: 1 2 3 4 5 6 7 8 9 10 11 12 13 14 15 16 17 18 19 20 21 22 23 24 25 26 27 28 29 30 31 32 33 34 35 36 37 38 39 40 41 42 43 44 45 46 47 48 49 50
000
ASUS43 KBIS 230602
RWRND

NORTH DAKOTA REGIONAL WEATHER ROUNDUP
NATIONAL WEATHER SERVICE BISMARCK ND
100 AM CDT SAT JUL 23 2016

NOTE: "FAIR" INDICATES FEW OR NO CLOUDS BELOW 12,000 FEET WITH NO
SIGNIFICANT WEATHER AND/OR OBSTRUCTIONS TO VISIBILITY.


NDZ001>003-009>011-017-230700-
NORTHWEST NORTH DAKOTA

CITY           SKY/WX    TMP DP  RH WIND       PRES   REMARKS
WILLISTON      CLOUDY    72  64  76 SE17G24   29.84R
6HR MIN TEMP:  71; 6HR MAX TEMP:  87; 6HR PCP:  0.33;

MINOT          CLOUDY    76  63  64 SE9       29.89R
MINOT AFB      MOCLDY    72  64  77 SE13      29.88R
$$

NDZ018>021-031>035-040>046-230700-
SOUTHWEST NORTH DAKOTA

CITY           SKY/WX    TMP DP  RH WIND       PRES   REMARKS
BISMARCK       TSTM      68  64  87 SE26G33   29.94R
6HR MIN TEMP:  67; 6HR MAX TEMP:  83; 6HR PCP:  0.32;

DICKINSON      LGT RAIN  65  60  84 SE15      29.92R
GARRISON         N/A     70  63  78 S12G22    29.87S
6HR MIN TEMP:  68; 6HR MAX TEMP:  84;

HETTINGER ARPT CLOUDY    68  61  78 E16G25    29.99R
$$

NDZ004>008-012>016-024-026-027-054-230700-
NORTHEAST NORTH DAKOTA

CITY           SKY/WX    TMP DP  RH WIND       PRES   REMARKS
GRAND FORKS    CLOUDY    74  65  73 E7        29.95F
GRND FRKS AFB  CLOUDY    70  67  89 SE1       29.97F
DEVILS LAKE    CLOUDY    73  64  73 SE9       29.97F
$$

NDZ022-023-025-028>030-036>039-047>053-230700-
SOUTHEAST NORTH DAKOTA

CITY           SKY/WX    TMP DP  RH WIND       PRES   REMARKS
FARGO          CLOUDY    72  66  81 E8        29.95F
6HR MIN TEMP:  72; 6HR MAX TEMP:  85;

JAMESTOWN      LGT RAIN  78  57  48 SW17G28   29.91F
$$





USA.gov is the U.S. government's official web portal to all federal, state and local government web resources and services.